Location: Unspecified
(0.0000°N, 0.0000°E)
Time: 23:26:10
(UTC+00:00)

ISS - Pass Details

Date: 16 January 2019
Orbit: 404 x 410 km, 51.6° (Epoch: 20 January)

Event Time Altitude Azimuth Distance (km) Brightness Sun altitude
Rises 18:34:21 0° 219° (SW) 2,320 1.2 -5.7°
Reaches altitude 10° 18:36:26 10° 221° (SW) 1,460 0.1 -6.2°
Maximum altitude 18:39:42 71° 305° (NW) 431 -3.6 -7.0°
Drops below altitude 10° 18:42:57 10° 30° (NNE) 1,457 -1.5 -7.7°
Enters shadow 18:43:49 - 31° (NNE) 1,812 -1.0 -7.9°
